When you browse on this site, cookies collect data to enhance your experience and personalize the content and advertising you see.
Visit our Privacy Policy to learn more. By continuing to use the site, you agree to this use of cookies and data.
  • en France
  • Liste des pays
  • À 7 jours
  • Température de l'eau
  • Carte météo
  • Widgets météo
  • user-avatar
    Se connecter

    Météo par heure à Musajid

    Ce jour, 10 Avril, Vendredi

    Heure Température Précipitation Vent Pression Humidité
    00:00 +30°C° 0 mm 7 m/s 755 mmHg 47%
    01:00 +30°C° 0 mm 7 m/s 755 mmHg 48%
    02:00 +30°C° 0 mm 7 m/s 754 mmHg 48%
    03:00 +30°C° 0 mm 7 m/s 754 mmHg 48%
    04:00 +30°C° 0 mm 7 m/s 754 mmHg 47%
    05:00 +30°C° 0 mm 6 m/s 755 mmHg 46%
    06:00 +30°C° 0 mm 6 m/s 755 mmHg 45%
    07:00 +33°C° 0 mm 6 m/s 756 mmHg 35%
    08:00 +36°C° 0 mm 6 m/s 756 mmHg 26%
    09:00 +39°C° 0 mm 6 m/s 756 mmHg 16%
    10:00 +40°C° 0 mm 6 m/s 756 mmHg 15%
    11:00 +42°C° 0 mm 5 m/s 755 mmHg 14%
    12:00 +43°C° 0 mm 5 m/s 755 mmHg 12%
    13:00 +42°C° 0 mm 6 m/s 754 mmHg 14%
    14:00 +42°C° 0 mm 6 m/s 754 mmHg 15%
    15:00 +41°C° 0 mm 6 m/s 753 mmHg 17%
    16:00 +40°C° 0 mm 6 m/s 753 mmHg 19%
    17:00 +39°C° 0 mm 7 m/s 754 mmHg 22%
    18:00 +38°C° 0 mm 7 m/s 754 mmHg 25%
    19:00 +36°C° 0 mm 7 m/s 754 mmHg 27%
    20:00 +35°C° 0 mm 7 m/s 754 mmHg 28%
    21:00 +35°C° 0 mm 8 m/s 754 mmHg 30%
    22:00 +35°C° 0 mm 7 m/s 754 mmHg 29%
    23:00 +35°C° 0 mm 7 m/s 754 mmHg 28%

    Demain, 11 Avril, Samedi

    Heure Température Précipitation Vent Pression Humidité
    00:00 +35°C° 0 mm 6 m/s 754 mmHg 27%
    01:00 +34°C° 0 mm 7 m/s 754 mmHg 30%
    02:00 +33°C° 0 mm 7 m/s 754 mmHg 32%
    03:00 +33°C° 0 mm 7 m/s 753 mmHg 35%
    04:00 +33°C° 0 mm 7 m/s 754 mmHg 33%
    05:00 +33°C° 0 mm 7 m/s 754 mmHg 31%
    06:00 +33°C° 0 mm 7 m/s 755 mmHg 29%
    07:00 +34°C° 0 mm 7 m/s 755 mmHg 27%
    08:00 +37°C° 0 mm 8 m/s 755 mmHg 25%
    09:00 +38°C° 0 mm 9 m/s 756 mmHg 23%
    10:00 +39°C° 0 mm 9 m/s 755 mmHg 21%
    11:00 +40°C° 0 mm 8 m/s 755 mmHg 19%
    12:00 +41°C° 0 mm 8 m/s 755 mmHg 18%
    13:00 +41°C° 0 mm 8 m/s 754 mmHg 19%
    14:00 +40°C° 0 mm 8 m/s 753 mmHg 20%
    15:00 +40°C° 0 mm 7 m/s 753 mmHg 21%
    16:00 +39°C° 0 mm 7 m/s 753 mmHg 22%
    17:00 +38°C° 0 mm 7 m/s 753 mmHg 24%
    18:00 +36°C° 0 mm 7 m/s 754 mmHg 25%
    19:00 +35°C° 0 mm 7 m/s 754 mmHg 29%
    20:00 +34°C° 0 mm 6 m/s 754 mmHg 33%
    21:00 +33°C° 0 mm 6 m/s 755 mmHg 37%
    22:00 +33°C° 0 mm 6 m/s 754 mmHg 34%
    23:00 +33°C° 0 mm 5 m/s 754 mmHg 32%

    Après-demain, 12 Avril, Dimanche

    Heure Température Précipitation Vent Pression Humidité
    00:00 +33°C° 0 mm 5 m/s 754 mmHg 29%
    01:00 +33°C° 0 mm 4 m/s 754 mmHg 32%
    02:00 +32°C° 0 mm 4 m/s 754 mmHg 34%
    03:00 +30°C° 0 mm 3 m/s 754 mmHg 37%
    04:00 +29°C° 0 mm 3 m/s 754 mmHg 43%
    05:00 +29°C° 0 mm 3 m/s 755 mmHg 50%
    06:00 +28°C° 0 mm 4 m/s 755 mmHg 56%
    07:00 +29°C° 0 mm 3 m/s 755 mmHg 49%
    08:00 +31°C° 0 mm 3 m/s 756 mmHg 42%
    09:00 +34°C° 0 mm 2 m/s 756 mmHg 35%
    10:00 +35°C° 0 mm 3 m/s 756 mmHg 32%
    11:00 +37°C° 0 mm 3 m/s 755 mmHg 29%
    12:00 +38°C° 0 mm 3 m/s 755 mmHg 27%
    13:00 +38°C° 0.1 mm 3 m/s 755 mmHg 28%
    14:00 +38°C° 0.1 mm 3 m/s 754 mmHg 30%
    15:00 +37°C° 0.1 mm 3 m/s 754 mmHg 31%
    16:00 +36°C° 0.2 mm 5 m/s 754 mmHg 36%
    17:00 +34°C° 0.2 mm 6 m/s 754 mmHg 41%
    18:00 +32°C° 0.2 mm 7 m/s 754 mmHg 46%
    19:00 +32°C° 0.2 mm 6 m/s 755 mmHg 51%
    20:00 +30°C° 0.2 mm 6 m/s 756 mmHg 56%
    21:00 +29°C° 0.2 mm 5 m/s 756 mmHg 60%
    22:00 +28°C° 0 mm 6 m/s 756 mmHg 64%
    23:00 +28°C° 0 mm 6 m/s 756 mmHg 67%

    13 Avril, Lundi

    Heure Température Précipitation Vent Pression Humidité
    00:00 +28°C° 0 mm 7 m/s 756 mmHg 70%
    01:00 +27°C° 0 mm 7 m/s 756 mmHg 68%
    02:00 +27°C° 0 mm 6 m/s 755 mmHg 66%
    03:00 +27°C° 0 mm 6 m/s 755 mmHg 64%
    04:00 +27°C° 0.1 mm 7 m/s 756 mmHg 61%
    05:00 +27°C° 0.1 mm 7 m/s 756 mmHg 57%
    06:00 +27°C° 0.1 mm 8 m/s 756 mmHg 54%
    07:00 +28°C° 0 mm 7 m/s 757 mmHg 50%
    08:00 +29°C° 0 mm 7 m/s 757 mmHg 47%
    09:00 +29°C° 0 mm 7 m/s 758 mmHg 43%
    10:00 +30°C° 0.1 mm 6 m/s 757 mmHg 43%
    11:00 +32°C° 0.1 mm 6 m/s 757 mmHg 43%
    12:00 +32°C° 0.1 mm 6 m/s 757 mmHg 43%
    13:00 +32°C° 0.1 mm 7 m/s 757 mmHg 45%
    14:00 +32°C° 0.1 mm 7 m/s 756 mmHg 48%
    15:00 +32°C° 0.1 mm 7 m/s 756 mmHg 50%
    16:00 +30°C° 0 mm 7 m/s 756 mmHg 54%
    17:00 +29°C° 0 mm 6 m/s 756 mmHg 58%
    18:00 +28°C° 0 mm 6 m/s 756 mmHg 62%
    19:00 +28°C° 0 mm 6 m/s 757 mmHg 63%
    20:00 +28°C° 0 mm 5 m/s 757 mmHg 64%
    21:00 +28°C° 0 mm 5 m/s 758 mmHg 65%
    22:00 +28°C° 0.1 mm 5 m/s 758 mmHg 66%
    23:00 +27°C° 0.1 mm 5 m/s 757 mmHg 67%

    14 Avril, Mardi

    Heure Température Précipitation Vent Pression Humidité
    00:00 +27°C° 0.1 mm 5 m/s 757 mmHg 68%
    01:00 +27°C° 0.2 mm 5 m/s 757 mmHg 69%
    02:00 +26°C° 0.2 mm 4 m/s 757 mmHg 71%
    03:00 +26°C° 0.2 mm 4 m/s 757 mmHg 72%
    04:00 +26°C° 0 mm 4 m/s 757 mmHg 68%
    05:00 +26°C° 0 mm 4 m/s 757 mmHg 65%
    06:00 +26°C° 0 mm 5 m/s 757 mmHg 61%
    07:00 +27°C° 0 mm 5 m/s 757 mmHg 60%
    08:00 +28°C° 0 mm 5 m/s 757 mmHg 60%
    09:00 +29°C° 0 mm 5 m/s 758 mmHg 59%
    10:00 +29°C° 0 mm 5 m/s 757 mmHg 58%
    11:00 +30°C° 0 mm 5 m/s 757 mmHg 57%
    12:00 +32°C° 0 mm 5 m/s 756 mmHg 55%
    13:00 +30°C° 0 mm 5 m/s 756 mmHg 57%
    14:00 +30°C° 0 mm 4 m/s 756 mmHg 58%
    15:00 +30°C° 0 mm 4 m/s 755 mmHg 60%
    16:00 +29°C° 0 mm 5 m/s 755 mmHg 61%
    17:00 +29°C° 0 mm 6 m/s 756 mmHg 62%
    18:00 +29°C° 0 mm 7 m/s 756 mmHg 64%
    19:00 +28°C° 0.9 mm 7 m/s 756 mmHg 67%
    20:00 +27°C° 0.9 mm 7 m/s 757 mmHg 71%
    21:00 +26°C° 0.9 mm 7 m/s 758 mmHg 74%
    22:00 +26°C° 0.5 mm 7 m/s 758 mmHg 74%
    23:00 +26°C° 0.5 mm 7 m/s 758 mmHg 75%

    15 Avril, Mercredi

    Heure Température Précipitation Vent Pression Humidité
    00:00 +26°C° 0.5 mm 7 m/s 757 mmHg 75%
    01:00 +24°C° 0.6 mm 7 m/s 758 mmHg 79%
    02:00 +24°C° 0.6 mm 7 m/s 758 mmHg 83%
    03:00 +23°C° 0.6 mm 7 m/s 758 mmHg 87%
    04:00 +24°C° 0.1 mm 8 m/s 758 mmHg 85%
    05:00 +24°C° 0.1 mm 8 m/s 758 mmHg 83%
    06:00 +24°C° 0.1 mm 9 m/s 758 mmHg 81%
    07:00 +26°C° 0 mm 9 m/s 759 mmHg 78%
    08:00 +27°C° 0 mm 9 m/s 759 mmHg 76%
    09:00 +27°C° 0 mm 10 m/s 759 mmHg 73%
    10:00 +28°C° 0 mm 9 m/s 759 mmHg 70%
    11:00 +28°C° 0 mm 9 m/s 758 mmHg 67%
    12:00 +29°C° 0 mm 8 m/s 758 mmHg 64%
    13:00 +29°C° 0 mm 8 m/s 757 mmHg 65%
    14:00 +29°C° 0 mm 8 m/s 757 mmHg 66%
    15:00 +29°C° 0 mm 7 m/s 756 mmHg 67%
    16:00 +28°C° 0 mm 7 m/s 756 mmHg 68%
    17:00 +28°C° 0 mm 6 m/s 756 mmHg 69%
    18:00 +28°C° 0 mm 6 m/s 755 mmHg 70%
    19:00 +28°C° 0.3 mm 4 m/s 756 mmHg 69%
    20:00 +28°C° 0.3 mm 3 m/s 756 mmHg 69%
    21:00 +28°C° 0.3 mm 1 m/s 757 mmHg 69%
    22:00 +27°C° 1.4 mm 3 m/s 757 mmHg 71%
    23:00 +26°C° 1.4 mm 4 m/s 757 mmHg 73%
    Voir plus